Location: Borojevi?i
(45.0486°N, 16.2297°E)
Time: 21:03:53
(UTC+00:00)

GEOS 3 Rocket - Pass Details

Date: 08 August 2020
Orbit: 770 x 849 km, 115.0° (Epoch: 21 September)

Event Time Altitude Azimuth Distance (km) Brightness Sun altitude
Rises 23:45:59 0° 40° (NE) 3,418 7.8 -28.3°
Reaches altitude 10° 23:48:21 10° 44° (NE) 2,481 6.8 -28.2°
Enters shadow 23:53:17 58° 103° (ESE) 989 3.9 -28.0°
